Date String (YYYY-MM-DD hh:mm:ss) UTC,Instrument flags,absolute air pressure of the measurement (hPa),sample flow rate (lpm),inlet stack bypass flow (lpm),air temperature of the measurement (°C),ambient temperature measured by the external sensor (°C),aerosol sample conditioner tube jacket temperature (°C),OPC LED temperature (°C),internal box temperature (°C),relative humidity of the measurement (%),span deviation,mass concentration of particles derived from Lorenz-Mie calculation of OPC scattering (μg/m³),mass concentration of particles derived from Lorenz-Mie calculation of OPC scattering (μg/m³),mass concentration of particles derived from Lorenz-Mie calculation of OPC scattering (μg/m³)
DateTimeUTC,F1_M11,P_M11,Q1_M11,Q2_M11,T1_M11,T2_M11,T3_M11,T4_M11,T5_M11,U1_M11,ZSPAN_M11,X0_M11,X2_M11,X1_M11
2023-07-01 08:00:00,SystemResetWarning,0833.8,5.00,000.00,029.8,028.3,000.0,038.4,031.3,20.5,0000.0,0003.88,0002.90,0002.52
2023-07-01 08:01:00,SystemResetWarning,0833.9,4.99,000.00,029.8,028.3,000.0,038.4,031.2,20.6,0000.0,0003.79,0002.89,0002.51
2023-07-01 08:02:00,SystemResetWarning,0833.9,5.00,000.00,029.8,028.3,000.0,038.4,031.2,21.0,0000.0,0003.85,0002.92,0002.52
2023-07-01 08:03:00,SystemResetWarning,0833.8,5.00,000.00,029.8,028.3,000.0,038.4,031.3,20.8,0000.0,0003.83,0002.95,0002.52
2023-07-01 08:04:00,SystemResetWarning,0833.8,5.00,000.00,029.8,028.3,000.0,038.4,031.2,20.6,0000.0,0003.64,0002.93,0002.53
2023-07-01 08:05:00,SystemResetWarning,0833.8,5.01,000.00,029.8,028.3,000.0,038.4,031.2,20.6,0000.0,0003.65,0002.95,0002.52
2023-07-01 08:06:00,SystemResetWarning,0833.8,5.00,000.00,029.8,028.3,000.0,038.4,031.2,20.3,0000.0,0003.70,0002.97,0002.53
2023-07-01 08:07:00,SystemResetWarning,0833.8,5.00,000.00,029.8,028.3,000.0,038.4,031.3,20.4,0000.0,0004.14,0002.97,0002.52
2023-07-01 08:08:00,SystemResetWarning,0833.8,5.00,000.00,029.8,028.3,000.0,038.4,031.3,20.6,0000.0,0004.15,0002.99,0002.51
2023-07-01 08:09:00,SystemResetWarning,0833.8,4.99,000.00,029.8,028.3,000.0,038.4,031.3,20.7,0000.0,0004.16,0002.99,0002.50
2023-07-01 08:10:00,SystemResetWarning,0833.8,4.99,000.00,029.8,028.3,000.0,038.4,031.2,20.8,0000.0,0004.11,0002.96,0002.50
2023-07-01 08:11:00,SystemResetWarning,0833.8,4.99,000.00,029.8,028.3,000.0,038.4,031.2,20.4,0000.0,0004.14,0002.98,0002.51
2023-07-01 08:12:00,SystemResetWarning,0833.8,5.00,000.00,029.8,028.3,000.0,038.4,031.2,20.3,0000.0,0004.10,0002.95,0002.51
2023-07-01 08:13:00,SystemResetWarning,0833.7,5.00,000.00,029.8,028.3,000.0,038.4,031.2,20.6,0000.0,0004.11,0002.95,0002.50
2023-07-01 08:14:00,SystemResetWarning,0833.8,5.00,000.00,029.8,028.3,000.0,038.4,031.2,20.8,0000.0,0004.14,0002.94,0002.49
2023-07-01 08:15:00,SystemResetWarning,0833.8,5.01,000.00,029.8,028.3,000.0,038.4,031.2,20.6,0000.0,0004.18,0002.93,0002.48
2023-07-01 08:16:00,SystemResetWarning,0833.8,5.01,000.00,029.8,028.3,000.0,038.4,031.2,20.4,0000.0,0004.24,0002.93,0002.48
2023-07-01 08:17:00,SystemResetWarning,0833.8,5.00,000.00,029.8,028.3,000.0,038.4,031.2,20.2,0000.0,0004.17,0002.90,0002.48
2023-07-01 08:18:00,SystemResetWarning,0833.8,5.00,000.00,029.8,028.3,000.0,038.4,031.2,20.0,0000.0,0003.74,0002.88,0002.47
2023-07-01 08:19:00,SystemResetWarning,0833.7,5.00,000.00,029.8,028.2,000.0,038.4,031.2,20.3,0000.0,0003.75,0002.86,0002.47
2023-07-01 08:20:00,SystemResetWarning,0833.7,5.00,000.00,029.8,028.2,000.0,038.4,031.2,20.0,0000.0,0003.68,0002.84,0002.47
2023-07-01 08:21:00,SystemResetWarning,0833.7,5.00,000.00,029.8,028.2,000.0,038.4,031.2,19.9,0000.0,0003.65,0002.84,0002.49
2023-07-01 08:22:00,SystemResetWarning,0833.7,5.00,000.00,029.8,028.2,000.0,038.4,031.2,19.7,0000.0,0003.62,0002.82,0002.48
2023-07-01 08:23:00,SystemResetWarning,0833.7,5.00,000.00,029.7,028.2,000.0,038.4,031.2,19.6,0000.0,0003.51,0002.77,0002.46
2023-07-01 08:24:00,SystemResetWarning,0833.7,5.00,000.00,029.7,028.2,000.0,038.4,031.2,19.7,0000.0,0003.39,0002.72,0002.45
2023-07-01 08:25:00,SystemResetWarning,0833.7,5.00,000.00,029.8,028.2,000.0,038.4,031.2,19.9,0000.0,0003.38,0002.70,0002.44
2023-07-01 08:26:00,SystemResetWarning,0833.7,5.00,000.00,029.8,028.2,000.0,038.4,031.2,19.9,0000.0,0003.36,0002.70,0002.42
2023-07-01 08:27:00,SystemResetWarning,0833.7,5.00,000.00,029.8,028.2,000.0,038.4,031.2,20.0,0000.0,0003.33,0002.69,0002.41
2023-07-01 08:28:00,SystemResetWarning,0833.7,5.00,000.00,029.8,028.2,000.0,038.4,031.2,20.6,0000.0,0003.28,0002.68,0002.41
2023-07-01 08:29:00,SystemResetWarning,0833.7,4.99,000.00,029.7,028.2,000.0,038.4,031.2,20.4,0000.0,0003.23,0002.65,0002.41
2023-07-01 08:30:00,SystemResetWarning,0833.7,4.99,000.00,029.7,028.2,000.0,038.4,031.1,20.1,0000.0,0003.22,0002.65,0002.41
2023-07-01 08:31:00,SystemResetWarning,0833.7,5.00,000.00,029.7,028.2,000.0,038.4,031.1,20.0,0000.0,0003.39,0002.67,0002.42
2023-07-01 08:32:00,SystemResetWarning,0833.6,5.01,000.00,029.7,028.2,000.0,038.4,031.2,20.3,0000.0,0003.52,0002.70,0002.41
2023-07-01 08:33:00,SystemResetWarning,0833.7,5.01,000.00,029.7,028.2,000.0,038.3,031.1,20.3,0000.0,0003.54,0002.71,0002.41
2023-07-01 08:34:00,SystemResetWarning,0833.7,5.01,000.00,029.7,028.2,000.0,038.3,031.1,20.5,0000.0,0003.57,0002.72,0002.41
2023-07-01 08:35:00,SystemResetWarning,0833.7,5.00,000.00,029.7,028.2,000.0,038.3,031.1,19.9,0000.0,0003.68,0002.77,0002.41
2023-07-01 08:36:00,SystemResetWarning,0833.6,5.00,000.00,029.7,028.2,000.0,038.3,031.1,19.8,0000.0,0003.67,0002.78,0002.41
2023-07-01 08:37:00,SystemResetWarning,0833.7,5.00,000.00,029.7,028.2,000.0,038.3,031.1,19.7,0000.0,0003.61,0002.76,0002.41
2023-07-01 08:38:00,SystemResetWarning,0833.7,5.00,000.00,029.7,028.2,000.0,038.3,031.1,19.8,0000.0,0003.84,0002.78,0002.41
2023-07-01 08:39:00,SystemResetWarning,0833.6,4.99,000.00,029.7,028.2,000.0,038.4,031.1,19.7,0000.0,0003.85,0002.76,0002.41
2023-07-01 08:40:00,SystemResetWarning,0833.7,5.00,000.00,029.7,028.2,000.0,038.4,031.2,19.5,0000.0,0003.81,0002.75,0002.41
2023-07-01 08:41:00,SystemResetWarning,0833.7,5.00,000.00,029.7,028.2,000.0,038.3,031.1,19.6,0000.0,0003.81,0002.75,0002.41
2023-07-01 08:42:00,SystemResetWarning,0833.7,5.01,000.00,029.7,028.2,000.0,038.3,031.1,19.8,0000.0,0003.72,0002.74,0002.40
2023-07-01 08:43:00,SystemResetWarning,0833.7,5.00,000.00,029.7,028.2,000.0,038.3,031.1,19.9,0000.0,0003.65,0002.72,0002.39
2023-07-01 08:44:00,SystemResetWarning,0833.7,5.01,000.00,029.7,028.2,000.0,038.3,031.1,19.6,0000.0,0003.69,0002.70,0002.37
2023-07-01 08:45:00,SystemResetWarning,0833.7,5.00,000.00,029.7,028.2,000.0,038.3,031.1,19.5,0000.0,0003.75,0002.72,0002.38
2023-07-01 08:46:00,SystemResetWarning,0833.6,4.99,000.00,029.7,028.2,000.0,038.3,031.1,19.4,0000.0,0003.66,0002.69,0002.36
2023-07-01 08:47:00,SystemResetWarning,0833.7,4.99,000.00,029.7,028.2,000.0,038.3,031.1,19.4,0000.0,0003.70,0002.69,0002.36
2023-07-01 08:48:00,SystemResetWarning,0833.7,5.01,000.00,029.7,028.2,000.0,038.3,031.1,19.5,0000.0,0003.76,0002.69,0002.36
2023-07-01 08:49:00,SystemResetWarning,0833.7,5.00,000.00,029.7,028.2,000.0,038.3,031.1,19.6,0000.0,0003.48,0002.66,0002.36
2023-07-01 08:50:00,SystemResetWarning,0833.7,5.00,000.00,029.7,028.1,000.0,038.3,031.1,19.9,0000.0,0003.44,0002.67,0002.35
2023-07-01 08:51:00,SystemResetWarning,0833.7,5.00,000.00,029.7,028.1,000.0,038.3,031.1,19.8,0000.0,0003.56,0002.71,0002.35
2023-07-01 08:52:00,SystemResetWarning,0833.7,5.00,000.00,029.7,028.1,000.0,038.3,031.1,19.7,0000.0,0003.59,0002.72,0002.35
2023-07-01 08:53:00,SystemResetWarning,0833.7,5.01,000.00,029.7,028.1,000.0,038.3,031.1,19.5,0000.0,0003.61,0002.74,0002.36
2023-07-01 08:54:00,SystemResetWarning,0833.7,5.00,000.00,029.7,028.1,000.0,038.3,031.1,19.4,0000.0,0003.49,0002.70,0002.36
2023-07-01 08:55:00,SystemResetWarning,0833.7,5.00,000.00,029.7,028.1,000.0,038.3,031.1,19.3,0000.0,0003.40,0002.71,0002.36
2023-07-01 08:56:00,SystemResetWarning,0833.7,5.00,000.00,029.7,028.1,000.0,038.3,031.1,19.2,0000.0,0003.36,0002.69,0002.37
2023-07-01 08:57:00,SystemResetWarning,0833.7,5.00,000.00,029.7,028.1,000.0,038.3,031.1,19.3,0000.0,0003.42,0002.72,0002.38
2023-07-01 08:58:00,SystemResetWarning,0833.7,5.00,000.00,029.7,028.1,000.0,038.3,031.1,19.5,0000.0,0003.42,0002.73,0002.39
2023-07-01 08:59:00,SystemResetWarning,0833.7,4.99,000.00,029.7,028.1,000.0,038.3,031.1,19.1,0000.0,0003.36,0002.73,0002.39
